Погода в Свиднике

Польша     51°13′00″N   22°41′27″E
темп.,
°C
ветер,
м/с
пор.,
м/с
влажн.,
%
обл.,
%
осадки,
мм/ч
давл.,
гПа
погр.,
м
2 марта, вт
вт201:00+1зюз510958 0.0 1034266
04:00+1з6129531 0.0 1032289
07:00+1з6129427 0.0 1032327
10:00+6зсз711748 0.0 1031481
13:00+9зсз711604 0.0 1030648
16:00+9зсз611600 0.0 1029667
19:00+5сз4108013 0.0 1030264
22:00+3зсз48860 0.0 1032152
3 марта, ср
ср301:00+2сз34910 0.0 103363
04:00+1сз22940 0.0 103122
07:00+1з12951 0.0 103122
10:00+5зюз227567 0.0 1031354
13:00+9зюз236033 0.0 1029633
16:00+8зюз35630 0.0 1026525
19:00+5ююз34770 0.0 102573
22:00+4юз478047 0.0 1022124
4 марта, чт
чт401:00+4юз5127967 0.0 1020231
04:00+3зюз613840 0.0 1017288
07:00+3зюз713860 0.0 1016355
10:00+8з7117119 0.0 1014819
13:00+10з8116753 0.0 10121236
16:00+9з61067100 0.0 10101089
19:00+6зюз498299 0.0 1010234
22:00+5з3791100 0.2 1009193
5 марта, пт
пт501:00+4ссз3595100 2.5 1008282
04:00+1сз4696100 2.2 1008331
07:00−1с6991100 3.3 1011613
10:000с6860100 0.1 1014861
13:00+2с684376 0.1 10161504
16:00+2ссз574413 0.0 10171837
19:00−1сз5107022 0.1 1020580
22:00−2ссз486665 0.0 1022384
6 марта, сб
сб601:00−2зсз366232 0.0 1023265
04:00−2зсз486233 0.0 1023615
07:00−2сз478464 0.2 1025565
10:000сз355663 0.1 10251174
13:00+1сз464482 0.3 10251766
16:00+1зсз584998 0.1 10251700
19:00−2зюз486165 0.1 1024212
22:00−1зюз7155217 0.0 1023606